Regional Weather Roundup
Issued by NWS New Orleans/Baton Rouge, LA

Home | Current Version | Previous Version | Text Only | Print | Product List | Glossary On
Versions: 1 2 3 4 5 6 7 8 9 10 11 12 13 14 15 16 17 18 19 20 21 22 23 24 25 26 27 28 29 30 31 32 33 34 35 36 37 38 39 40 41 42 43 44 45 46 47 48 49 50
262
ASUS44 KLIX 220005
RWRLIX
NEW ORLEANS REGIONAL WEATHER ROUNDUP
NATIONAL WEATHER SERVICE NEW ORLEANS LA
600 PM CST FRI NOV 21 2014

NOTE: "FAIR" INDICATES FEW OR NO CLOUDS BELOW 12,000 FEET WITH NO
      SIGNIFICANT WEATHER AND/OR OBSTRUCTIONS TO VISIBILITY.
      SKY/WX - SKY CONDITION AND SIGNIFICANT WEATHER.
      TMP - AIR TEMPERATURE.     DP    - DEWPOINT TEMPERATURE.
      RH  - RELATIVE HUMIDITY.   PRES  - PRESSURE.
      HI  - HEAT INDEX.          WCI   - WIND CHILL INDEX.

*  THESE STATIONS ARE NOT NWS OR FAA STATIONS AND ARE NOT UNDER
   NWS QUALITY CONTROL.

LAZ038-040-048-061>063-065>067-069-220100-
SOUTHEAST LOUISIANA

CITY           SKY/WX    TMP DP  RH WIND       PRES   REMARKS
N.O. AUDUBON     N/A     61  56  83 MISG        N/A
6HR MIN TEMP:  61; 6HR MAX TEMP:  71;

N.O. INTL ARPT PTCLDY    61  53  75 E10       30.26S
6HR MIN TEMP:  61; 6HR MAX TEMP:  71;

N.O. LAKEFRONT CLEAR     59  52  77 E12       30.27S
6HR MIN TEMP:  59; 6HR MAX TEMP:  68;

N.O. DOWNTOWN*   N/A     61  50  67 NE5       30.27S
6HR MIN TEMP:  61; 6HR MAX TEMP:  68;

SLIDELL        CLEAR     60  49  66 E3        30.28R
6HR MIN TEMP:  60; 6HR MAX TEMP:  70;

BATON ROUGE    MOCLDY    63  51  65 E14       30.25R
6HR MIN TEMP:  63; 6HR MAX TEMP:  72;

BOOTHVILLE     CLEAR     62  52  69 E9        30.26S
6HR MIN TEMP:  62; 6HR MAX TEMP:  69;

BELLE CHASSE   PTCLDY    59  52  77 E8        30.26S
6HR MIN TEMP:  58; 6HR MAX TEMP:  71;

BOGALUSA*        N/A     62  42  47 SE5       30.29S
6HR MIN TEMP:  62; 6HR MAX TEMP:  75;

NEW ROADS*     CLOUDY    64  49  59 E8        30.24R
6HR MIN TEMP:  64; 6HR MAX TEMP:  72;

GONZALES*        N/A     62  55  78 E6        30.24F
6HR MIN TEMP:  62; 6HR MAX TEMP:  71;

HAMMOND*       CLEAR     61  50  67 SE6       30.28S
HOUMA*         CLEAR     59  50  72 E12       30.25R
PORT FOURCHON* PTCLDY    66  52  59 E13G20    30.26S

$$

MSZ070-080>082-220100-
SOUTHERN MISSISSIPPI

CITY           SKY/WX    TMP DP  RH WIND       PRES   REMARKS
MCCOMB         CLEAR     60  42  51 SE8       30.26S
6HR MIN TEMP:  60; 6HR MAX TEMP:  71;

GULFPORT       CLEAR     58  49  72 E8        30.28S
6HR MIN TEMP:  57; 6HR MAX TEMP:  69;

BILOXI         CLEAR     59  49  69 E5        30.29S
6HR MIN TEMP:  59; 6HR MAX TEMP:  69;

PASCAGOULA     CLEAR     49  46  90 CALM      30.30R
6HR MIN TEMP:  49; 6HR MAX TEMP:  70;

STENNIS ARPT*  CLEAR     57  46  67 SE5       30.29

$$

COASTAL OBSERVATIONS
LAKE AND NEARSHORE STATIONS

STATION/POSITION TIME  TEMP    WIND        PRES    WAVE
                       AIR SEA DIR/SP/G            HT/PER
                 (UTC) (F)     (DEG/KT/KT) (MB)    (FT/S)
PASCAGOULA       0000   61      80/  6/  9 1025.2
WAVELAND YACHT   0000   60     110/  9/ 10 1024.5
GRAND ISLE       0000   63 59   80/  9/ 12 1024.4
SOUTHWEST PASS   0000   67 73              1024.0
NEW CANAL        0000   60 55   80/ 10/ 13 1025.1
SHELL BEACH      0000   58 53   70/ 10/ 10 1024.6

OFFSHORE STATIONS

STATION/POSITION TIME  TEMP    WIND        PRES    WAVE
                       AIR SEA DIR/SP/G            HT/PER
                 (UTC) (F)     (DEG/KT/KT) (MB)    (FT/S)

$$




USA.gov is the U.S. government's official web portal to all federal, state and local government web resources and services.